sat.trackr.live / text

‹ back to catalog

STARLINK-36145

NORAD 66983 · 2025-288AA

PAYLOAD ACTIVE UNKNOWN

§ Identity

Operator
Country
US
Launch date
2025-12-08
Launch site
AFETR
Launch vehicle
Mass (kg)
RCS (m²)

Purposes: comms

External: N2YO · Heavens-Above · Gunter

§ Orbital elements

Epoch: 2026-09-20T00:06:22.592160Z

Period
94.27 min
Inclination
43.0019°
Eccentricity
0.0001607
Mean motion
15.27587508 rev/d
Perigee alt
481.9 km
Apogee alt
484.1 km
Semi-major
6,861.2 km
B*
5.3393e-4
RAAN
6.2060°
Arg perigee
266.7161°
Mean anomaly
93.3507°
Rev number
4,500

§ Raw data

STARLINK-361451 66983U 25288AA  26263.00442815  .00014463  00000+0  53393-3 0  99932 66983  43.0019   6.2060 0001607 266.7161  93.3507 15.27587508 45002

JSON: /api/v1/satellites/66983 · /tle

For live sub-satellite position, see the globe view (requires WebGL).

§ Visibility from observer

Set your observer location to see the next 7 days of passes ≥ 10°. The values pass through the URL so the page stays shareable.

No JS? Fill the form by hand. The geolocation button needs JavaScript.